Flight Information

DEPARTURE
RIVERSIDE, CA
Elevation:
1536
Runways:
14/32 - 13302x200 - CONC-G
12/30 - 3061x100 - ASPH
ATIS:
134.75
Clearance Delivery:
121.75
Ground:
121.75
Tower:
127.65
DESTINATION
,
Elevation:
TPA:
1000 (est.)


6740.7 NM74° True-14° Var60° HDG

Flight Plan:
(click to file on line)

1. Type
2. Aircraft Identification
3. Aircraft Type / Special Equipment
4. True Airspeed
kts
5. Departure Airport
(ICAO code)
6. Arriving Airport
(ICAO code)
7. Cruising Altitude
ft
8. Alternate Airport
(ICAO code)
9. Route of Flight
10. Remarks


00:00:00 Departure ATIS: Destination ATIS:

Clearance Limit:
Route:
Altitude: Expect in minutes
Frequency:
Transponder: (7500 Hijack / 7600 Lost Comms / 7700 Emergency)


KRIV 281158Z AUTO 00000KT 8SM CLR 14/12 A2991 RMK AO2 SLP117 T01360116 10181 20134 55001 PWINO $
Time: 2020-09-28T11:58:00Z
1601295456
Winds: calm
Visibility: 8.0 sm
Clouds (AGL): CLR
Temperature: 13.6 C
Dew Point: 11.6 C
Pressure: 29.911417 in Hgbr


Notes:

Data extracted from FAA Digital Chart Supplement. Effective: 0901Z Thursday, Sep 10, 2020 to 0901Z Thursday, Nov 5, 2020
Current ATIS data is provided courtisy of PilotEdge.